Tracking 30995 objects as of 5-Jul-2025
HD Live streaming from Space Station
objects crossing your sky now

DELTA 1 DEB

Track DELTA 1 DEB now!
10-day predictions


NORAD ID: 21680
Int'l Code: 1975-052JG
Perigee: 1,083.8 km
Apogee: 1,672.8 km
Inclination: 99.6 °
Period: 113.1 minutes
Semi major axis: 7749 km
RCS: 0.0342 m2 (small)
Launch date: June 12, 1975
Source: United States (US)
Launch site: AIR FORCE WESTERN TEST RANGE (AFWTR)

Note: This is SATELLITE DEBRIS
Your satellite tracking list
STARLINK-5162
Track 1 satellite(s)




NASA's NSSDC Master Catalog

Two Line Element Set (TLE):
1 21680U 75052JG  25186.48825752  .00000099  00000-0  48901-3 0  9992
2 21680  99.5624  10.1439 0380043 336.0662  46.7833 12.72648602579006
Source of the keplerian elements: AFSPC